• In Hungary
  • List of Countries
  • For 7 days
  • Water Temperature
  • Satellite Maps
  • Weather Map
  • News
  • Weather Widgets
  • user-avatar
    Login

    Hourly Weather Zaikino

    Today, 22 August, Wednesday

    Time Temperature Precipitation Wind Pressure Humidity
    00:00 +14°C° 0 mm 3 mps 741 mmHg 91%
    01:00 +13°C° 0 mm 3 mps 742 mmHg 91%
    02:00 +13°C° 0 mm 2 mps 742 mmHg 95%
    03:00 +12°C° 0 mm 2 mps 743 mmHg 94%
    04:00 +12°C° 0 mm 2 mps 743 mmHg 93%
    05:00 +10°C° 0 mm 3 mps 743 mmHg 92%
    06:00 +12°C° 0 mm 3 mps 744 mmHg 84%
    07:00 +14°C° 0 mm 4 mps 744 mmHg 76%
    08:00 +15°C° 0 mm 4 mps 744 mmHg 68%
    09:00 +17°C° 0 mm 4 mps 745 mmHg 62%
    10:00 +19°C° 0 mm 5 mps 745 mmHg 55%
    11:00 +20°C° 0 mm 5 mps 745 mmHg 49%
    12:00 +20°C° 0 mm 5 mps 745 mmHg 47%
    13:00 +20°C° 0 mm 5 mps 746 mmHg 45%
    14:00 +21°C° 0 mm 5 mps 746 mmHg 44%
    15:00 +20°C° 0 mm 4 mps 746 mmHg 48%
    16:00 +20°C° 0 mm 3 mps 746 mmHg 51%
    17:00 +19°C° 0 mm 3 mps 746 mmHg 55%
    18:00 +18°C° 0 mm 3 mps 747 mmHg 60%
    19:00 +16°C° 0 mm 2 mps 747 mmHg 65%
    20:00 +14°C° 0 mm 2 mps 747 mmHg 70%
    21:00 +13°C° 0 mm 2 mps 747 mmHg 74%
    22:00 +12°C° 0 mm 2 mps 748 mmHg 77%
    23:00 +12°C° 0 mm 2 mps 748 mmHg 80%

    Tomorrow, 23 August, Thursday

    Time Temperature Precipitation Wind Pressure Humidity
    00:00 +11°C° 0 mm 1 mps 748 mmHg 82%
    01:00 +11°C° 0 mm 1 mps 749 mmHg 83%
    02:00 +10°C° 0 mm 1 mps 749 mmHg 84%
    03:00 +10°C° 0 mm 1 mps 749 mmHg 85%
    04:00 +10°C° 0 mm 1 mps 749 mmHg 85%
    05:00 +10°C° 0 mm 1 mps 749 mmHg 85%
    06:00 +12°C° 0 mm 1 mps 750 mmHg 77%
    07:00 +13°C° 0 mm 0 mps 750 mmHg 70%
    08:00 +15°C° 0 mm 0 mps 750 mmHg 62%
    09:00 +19°C° 0 mm 1 mps 750 mmHg 57%
    10:00 +20°C° 0 mm 1 mps 750 mmHg 52%
    11:00 +21°C° 0 mm 1 mps 750 mmHg 46%
    12:00 +22°C° 0 mm 1 mps 750 mmHg 45%
    13:00 +22°C° 0 mm 1 mps 749 mmHg 43%
    14:00 +23°C° 0 mm 1 mps 749 mmHg 41%
    15:00 +22°C° 0 mm 1 mps 749 mmHg 44%
    16:00 +22°C° 0 mm 1 mps 749 mmHg 47%
    17:00 +22°C° 0 mm 1 mps 748 mmHg 50%
    18:00 +20°C° 0 mm 1 mps 748 mmHg 55%
    19:00 +18°C° 0 mm 1 mps 748 mmHg 59%
    20:00 +15°C° 0 mm 1 mps 748 mmHg 63%
    21:00 +14°C° 0 mm 1 mps 748 mmHg 65%
    22:00 +14°C° 0 mm 1 mps 749 mmHg 67%
    23:00 +13°C° 0 mm 1 mps 749 mmHg 69%

    Day after tomorrow, 24 August, Friday

    Time Temperature Precipitation Wind Pressure Humidity
    00:00 +13°C° 0 mm 1 mps 749 mmHg 70%
    01:00 +13°C° 0 mm 1 mps 749 mmHg 71%
    02:00 +12°C° 0 mm 1 mps 749 mmHg 72%
    03:00 +12°C° 0 mm 1 mps 748 mmHg 73%
    04:00 +12°C° 0 mm 1 mps 748 mmHg 74%
    05:00 +11°C° 0 mm 1 mps 748 mmHg 75%
    06:00 +14°C° 0 mm 1 mps 748 mmHg 69%
    07:00 +16°C° 0 mm 2 mps 748 mmHg 64%
    08:00 +18°C° 0 mm 2 mps 748 mmHg 58%
    09:00 +19°C° 0 mm 2 mps 748 mmHg 54%
    10:00 +21°C° 0 mm 2 mps 748 mmHg 50%
    11:00 +23°C° 0 mm 2 mps 748 mmHg 46%
    12:00 +24°C° 0 mm 2 mps 748 mmHg 44%
    13:00 +24°C° 0 mm 2 mps 747 mmHg 43%
    14:00 +25°C° 0 mm 2 mps 747 mmHg 42%
    15:00 +24°C° 0 mm 2 mps 747 mmHg 46%
    16:00 +24°C° 0 mm 2 mps 746 mmHg 49%
    17:00 +24°C° 0 mm 1 mps 746 mmHg 53%
    18:00 +22°C° 0 mm 1 mps 746 mmHg 56%
    19:00 +19°C° 0 mm 2 mps 746 mmHg 60%
    20:00 +17°C° 0 mm 2 mps 746 mmHg 64%
    21:00 +16°C° 0 mm 2 mps 746 mmHg 65%
    22:00 +15°C° 0 mm 2 mps 746 mmHg 66%
    23:00 +15°C° 0 mm 2 mps 746 mmHg 67%

    25 August, Saturday

    Time Temperature Precipitation Wind Pressure Humidity
    00:00 +14°C° 0 mm 2 mps 745 mmHg 67%
    01:00 +14°C° 0 mm 2 mps 745 mmHg 67%
    02:00 +14°C° 0 mm 2 mps 745 mmHg 67%
    03:00 +13°C° 0 mm 2 mps 745 mmHg 67%
    04:00 +13°C° 0 mm 2 mps 745 mmHg 68%
    05:00 +13°C° 0 mm 2 mps 745 mmHg 69%
    06:00 +15°C° 0 mm 2 mps 745 mmHg 65%
    07:00 +17°C° 0 mm 2 mps 745 mmHg 61%
    08:00 +19°C° 0 mm 2 mps 745 mmHg 58%
    09:00 +21°C° 0 mm 3 mps 745 mmHg 53%
    10:00 +22°C° 0 mm 3 mps 745 mmHg 48%
    11:00 +25°C° 0 mm 3 mps 745 mmHg 43%
    12:00 +26°C° 0 mm 3 mps 744 mmHg 41%
    13:00 +26°C° 0 mm 3 mps 744 mmHg 40%
    14:00 +27°C° 0 mm 3 mps 744 mmHg 38%
    15:00 +26°C° 0 mm 2 mps 744 mmHg 42%
    16:00 +26°C° 0 mm 2 mps 744 mmHg 46%
    17:00 +25°C° 0 mm 1 mps 743 mmHg 50%
    18:00 +23°C° 0 mm 2 mps 743 mmHg 53%
    19:00 +20°C° 0 mm 2 mps 743 mmHg 56%
    20:00 +18°C° 0 mm 2 mps 743 mmHg 59%
    21:00 +18°C° 0 mm 2 mps 743 mmHg 61%
    22:00 +17°C° 0 mm 2 mps 743 mmHg 62%
    23:00 +16°C° 0 mm 2 mps 743 mmHg 63%

    26 August, Sunday

    Time Temperature Precipitation Wind Pressure Humidity
    00:00 +16°C° 0 mm 2 mps 743 mmHg 63%
    01:00 +16°C° 0 mm 2 mps 743 mmHg 64%
    02:00 +15°C° 0 mm 2 mps 744 mmHg 64%
    03:00 +15°C° 0 mm 2 mps 743 mmHg 65%
    04:00 +15°C° 0 mm 2 mps 743 mmHg 66%
    05:00 +14°C° 0 mm 2 mps 743 mmHg 67%
    06:00 +16°C° 0 mm 2 mps 744 mmHg 63%
    07:00 +18°C° 0 mm 3 mps 744 mmHg 60%
    08:00 +20°C° 0 mm 3 mps 744 mmHg 56%
    09:00 +22°C° 0 mm 3 mps 744 mmHg 51%
    10:00 +25°C° 0 mm 4 mps 744 mmHg 46%
    11:00 +26°C° 0 mm 4 mps 744 mmHg 41%
    12:00 +27°C° 0 mm 4 mps 743 mmHg 40%
    13:00 +27°C° 0 mm 4 mps 743 mmHg 38%
    14:00 +28°C° 0 mm 4 mps 743 mmHg 37%
    15:00 +27°C° 0 mm 3 mps 743 mmHg 41%
    16:00 +26°C° 0 mm 3 mps 743 mmHg 46%
    17:00 +26°C° 0 mm 2 mps 743 mmHg 51%
    18:00 +24°C° 0 mm 3 mps 743 mmHg 54%
    19:00 +21°C° 0 mm 3 mps 743 mmHg 57%
    20:00 +19°C° 0 mm 3 mps 743 mmHg 61%
    21:00 +18°C° 0 mm 3 mps 743 mmHg 61%
    22:00 +18°C° 0 mm 3 mps 743 mmHg 61%
    23:00 +17°C° 0 mm 3 mps 743 mmHg 62%

    27 August, Monday

    Time Temperature Precipitation Wind Pressure Humidity
    00:00 +17°C° 0 mm 3 mps 743 mmHg 62%
    01:00 +16°C° 0 mm 2 mps 743 mmHg 63%
    02:00 +16°C° 0 mm 2 mps 743 mmHg 63%
    03:00 +16°C° 0 mm 2 mps 743 mmHg 65%
    04:00 +15°C° 0 mm 2 mps 743 mmHg 66%
    05:00 +15°C° 0 mm 2 mps 743 mmHg 68%
    06:00 +17°C° 0 mm 3 mps 744 mmHg 64%
    07:00 +19°C° 0 mm 3 mps 744 mmHg 61%
    08:00 +21°C° 0 mm 3 mps 744 mmHg 57%
    09:00 +23°C° 0 mm 4 mps 744 mmHg 52%
    10:00 +26°C° 0 mm 4 mps 744 mmHg 48%
    11:00 +27°C° 0 mm 4 mps 744 mmHg 43%
    12:00 +28°C° 0 mm 4 mps 744 mmHg 40%
    13:00 +29°C° 0 mm 4 mps 744 mmHg 38%
    14:00 +29°C° 0 mm 4 mps 744 mmHg 35%
    15:00 +29°C° 0 mm 3 mps 744 mmHg 40%
    16:00 +28°C° 0 mm 3 mps 744 mmHg 45%
    17:00 +27°C° 0 mm 2 mps 743 mmHg 50%
    18:00 +25°C° 0 mm 2 mps 744 mmHg 52%
    19:00 +23°C° 0 mm 2 mps 744 mmHg 55%
    20:00 +21°C° 0 mm 3 mps 744 mmHg 57%
    21:00 +20°C° 0 mm 2 mps 744 mmHg 58%
    22:00 +20°C° 0 mm 2 mps 745 mmHg 59%
    23:00 +19°C° 0 mm 2 mps 745 mmHg 59%
    Show more